Visibility
12.7 15.0 15.0 15.0 15.0 15.0 15.0 15.0 15.0 15.0 15.0 15.0 15.0 15.0 15.0 15.0 15.0 15.0 15.0 15.0 15.0 15.0 15.0 15.0 15.0 15.0 15.0 15.0 15.0 15.0 15.0 15.0 15.0 15.0 15.0 15.0 15.0 15.0
15.0 15.0 14.2 15.0 15.0 15.0 15.0 15.0 15.0 15.0 15.0 15.0 15.0 15.0 15.0 15.0 15.0 15.0 15.0 15.0 15.0 15.0 15.0 15.0 15.0 15.0 15.0 15.0 15.0 15.0 15.0 15.0 15.0 15.0 15.0 15.0 15.0 15.0
15.0 14.4 6.6 14.0 15.0 15.0 15.0 15.0 15.0 15.0 15.0 15.0 15.0 15.0 15.0 15.0 15.0 15.0 15.0 15.0 15.0 15.0 15.0 15.0 15.0 15.0 15.0 15.0 15.0 15.0 15.0 15.0 15.0 15.0 15.0 15.0 15.0 15.0
15.0 11.3 5.3 14.3 15.0 15.0 15.0 15.0 15.0 15.0 15.0 15.0 15.0 15.0 15.0 15.0 15.0 15.0 15.0 15.0 15.0 15.0 15.0 15.0 15.0 15.0 15.0 15.0 15.0 15.0 15.0 15.0 15.0 15.0 15.0 15.0 15.0 15.0
15.0 14.6 7.7 10.3 15.0 15.0 15.0 15.0 15.0 15.0 15.0 15.0 15.0 15.0 15.0 15.0 15.0 15.0 15.0 15.0 15.0 15.0 15.0 15.0 15.0 15.0 15.0 15.0 15.0 15.0 15.0 15.0 15.0 15.0 15.0 15.0 15.0 15.0
7.6 8.5 3.0 4.5 15.0 15.0 15.0 15.0 15.0 15.0 15.0 15.0 15.0 15.0 15.0 15.0 15.0 15.0 15.0 15.0 15.0 15.0 15.0 15.0 15.0 15.0 15.0 15.0 15.0 15.0 15.0 15.0 15.0 15.0 15.0 15.0 15.0 15.0
4.1 5.7 7.0 2.7 15.0 15.0 15.0 15.0 15.0 15.0 15.0 15.0 15.0 15.0 15.0 15.0 15.0 15.0 15.0 15.0 15.0 15.0 15.0 15.0 15.0 15.0 11.8 4.0 8.9 15.0 15.0 15.0 15.0 15.0 15.0 15.0 15.0 15.0
3.2 3.5 4.1 2.6 4.1 15.0 15.0 15.0 15.0 15.0 15.0 15.0 15.0 15.0 15.0 15.0 15.0 15.0 15.0 15.0 15.0 15.0 15.0 15.0 15.0 15.0 15.0 15.0 15.0 15.0 15.0 15.0 15.0 15.0 15.0 15.0 15.0 15.0
6.1 2.8 5.7 3.4 2.8 6.8 15.0 15.0 15.0 15.0 15.0 15.0 15.0 15.0 15.0 15.0 15.0 15.0 15.0 15.0 15.0 15.0 15.0 15.0 15.0 15.0 15.0 15.0 15.0 15.0 15.0 15.0 15.0 15.0 15.0 15.0 15.0 15.0
7.1 10.7 5.1 3.8 4.1 3.9 13.1 6.6 15.0 15.0 15.0 15.0 15.0 15.0 15.0 15.0 15.0 15.0 15.0 15.0 15.0 15.0 15.0 15.0 15.0 15.0 15.0 15.0 15.0 15.0 15.0 15.0 15.0 15.0 15.0 15.0 15.0 15.0
6.0 6.2 15.0 12.8 8.7 8.6 5.5 6.2 15.0 15.0 15.0 15.0 15.0 15.0 15.0 15.0 15.0 15.0 15.0 15.0 15.0 15.0 15.0 15.0 15.0 15.0 15.0 15.0 15.0 15.0 15.0 15.0 15.0 15.0 15.0 15.0 15.0 15.0
5.4 7.9 3.2 0.4 0.4 3.0 4.8 4.0 7.0 15.0 15.0 15.0 15.0 15.0 15.0 15.0 15.0 15.0 15.0 15.0 15.0 15.0 15.0 15.0 15.0 15.0 15.0 15.0 15.0 15.0 15.0 15.0 15.0 15.0 15.0 15.0 15.0 15.0
12.3 6.1 3.5 4.2 6.8 3.1 0.2 8.2 9.2 14.4 15.0 15.0 15.0 15.0 15.0 15.0 15.0 15.0 15.0 15.0 15.0 15.0 15.0 15.0 15.0 15.0 15.0 15.0 15.0 15.0 15.0 15.0 15.0 15.0 15.0 15.0 15.0 15.0
11.7 9.8 0.1 3.8 4.6 3.4 2.7 3.4 4.0 5.2 12.7 15.0 15.0 15.0 15.0 15.0 15.0 15.0 15.0 15.0 15.0 15.0 15.0 15.0 15.0 15.0 15.0 15.0 15.0 15.0 15.0 15.0 15.0 15.0 15.0 15.0 15.0 15.0
0.9 2.2 1.8 4.1 5.5 3.8 6.0 14.8 0.3 3.6 4.9 14.4 15.0 15.0 15.0 15.0 15.0 15.0 15.0 15.0 15.0 15.0 15.0 15.0 15.0 15.0 15.0 15.0 15.0 15.0 15.0 15.0 15.0 15.0 15.0 15.0 15.0 15.0
0.7 3.1 1.5 1.0 1.0 1.3 5.0 15.0 6.6 1.1 0.6 5.1 15.0 15.0 15.0 15.0 15.0 15.0 15.0 15.0 15.0 15.0 15.0 15.0 15.0 15.0 15.0 15.0 15.0 15.0 15.0 15.0 15.0 15.0 15.0 15.0 15.0 15.0
11.0 11.2 15.0 15.0 0.6 1.7 1.2 0.5 11.7 15.0 3.0 0.8 0.1 7.2 11.0 14.9 15.0 15.0 15.0 15.0 15.0 15.0 15.0 9.0 15.0 15.0 15.0 15.0 15.0 15.0 15.0 15.0 15.0 15.0 15.0 15.0 15.0 15.0
15.0 15.0 15.0 14.2 3.9 2.7 2.2 9.2 14.9 0.6 0.5 1.8 3.2 13.3 0.1 4.0 15.0 15.0 15.0 15.0 15.0 15.0 15.0 10.0 0.1 0.0 0.0 0.1 2.4 15.0 15.0 15.0 15.0 15.0 15.0 15.0 15.0 15.0
15.0 11.2 3.6 4.7 4.1 2.1 1.3 1.1 1.4 1.6 1.4 1.1 7.1 1.3 1.1 4.1 0.1 3.5 2.1 15.0 15.0 15.0 15.0 15.0 0.1 0.0 0.0 0.0 0.6 0.1 15.0 15.0 15.0 15.0 15.0 15.0 15.0 15.0
14.5 3.3 2.9 3.8 2.3 3.8 5.3 3.6 8.4 4.3 1.4 0.7 1.6 0.7 1.3 8.1 8.6 2.0 0.1 0.3 15.0 13.5 11.8 15.0 1.5 8.3 0.0 3.6 11.5 0.1 0.4 15.0 12.0 7.6 5.1 0.0 0.1 1.0
15.0 11.1 7.1 5.7 7.4 8.3 3.5 12.4 6.8 11.0 1.9 0.2 0.2 2.4 0.8 0.7 5.1 2.9 5.9 3.6 0.1 0.1 0.0 0.1 1.1 8.3 0.0 0.0 0.0 0.0 0.0 8.5 0.1 0.0 0.0 0.0 0.0 0.0
15.0 14.8 13.9 12.8 6.0 5.2 5.6 5.4 10.5 10.4 10.9 15.0 3.7 0.4 0.2 0.4 1.2 0.7 0.9 1.1 4.5 0.2 0.0 0.1 0.0 0.0 0.0 0.0 0.0 0.0 0.0 0.1 2.5 15.0 11.6 0.1 0.0 0.0
15.0 14.2 9.3 12.7 6.0 4.1 4.1 5.7 6.1 6.3 7.4 6.0 5.2 1.6 1.2 0.8 0.2 0.1 0.2 0.6 0.8 2.0 0.3 0.1 0.1 0.1 0.0 0.0 0.0 0.0 0.0 0.1 0.7 0.2 0.1 4.2 15.0 12.1